Weather History for Newton, IA

Change the Weather History Date:

Tuesday, April 30, 2013

  Actual Average Record
Temperature  
Mean Temperature 76 °F -  
Max Temperature 87 °F 67 °F 89 °F (1992)
Min Temperature 62 °F 44 °F 32 °F (2005)
Cooling Degree Days 12    
Growing Degree Days 26 (Base 50)    
Moisture  
Dew Point 52 °F    
Average Humidity 45    
Maximum Humidity 78    
Minimum Humidity 29    
Precipitation  
Precipitation 0.00 in - - ()
Sea Level Pressure  
Sea Level Pressure 29.68 in    
Wind  
Wind Speed 17 mph (SSW)    
Max Wind Speed 30 mph    
Max Gust Speed 43 mph    
Visibility 10 miles    
Events Rain    
Averages and records for this station are not official NWS values.
T = Trace of Precipitation, MM = Missing Value Source: NWS Daily Summary

Daily Weather History Graph

Daily Weather History Graph

Search for Another Location

Airport:

Trip Planner

Search our weather history database for the weather conditions in past years. The results will help you decide how hot, cold, wet, or windy it might be!

Date:

Astronomy

Apr. 30, 2013 Rise Set
Actual Time 6:09 AM CDT 8:09 PM CDT
Civil Twilight 5:39 AM CDT 8:39 PM CDT
Nautical Twilight 5:02 AM CDT 9:16 PM CDT
Astronomical Twilight 4:22 AM CDT 9:57 PM CDT
Moon 12:34 AM CDT (4/30) 10:38 AM CDT (4/30)
Length of Visible Light 15h 00m
Length of Day
13h 59m
Waning Gibbous, 70% of the Moon is Illuminated
Apr 30
Waning Gibbous
May 2
Last Quarter
May 9
New
May 17
First Quarter
May 24
Full

Hourly Weather History & Observations

Time (CDT) Temp. Heat Index Dew Point Humidity Pressure Visibility Wind Dir Wind Speed Gust Speed Precip Events Conditions
12:15 AM 68.0 °F - 60.8 °F 78% 29.59 in 10.0 mi South 11.5 mph - N/A   Partly Cloudy
12:35 AM 69.8 °F - 60.8 °F 73% 29.62 in 10.0 mi West 10.4 mph - N/A   Mostly Cloudy
12:55 AM 69.8 °F - 62.6 °F 78% 29.61 in 8.0 mi South 17.3 mph - N/A Rain Light Rain
1:15 AM 69.8 °F - 60.8 °F 73% 29.59 in 10.0 mi South 16.1 mph - N/A   Overcast
1:35 AM 69.8 °F - 60.8 °F 73% 29.60 in 10.0 mi South 15.0 mph - N/A   Overcast
1:55 AM 71.6 °F - 60.8 °F 69% 29.59 in 10.0 mi South 16.1 mph - N/A   Mostly Cloudy
2:15 AM 71.6 °F - 59.0 °F 64% 29.60 in 10.0 mi South 13.8 mph 20.7 mph N/A   Scattered Clouds
2:35 AM 69.8 °F - 59.0 °F 68% 29.59 in 10.0 mi South 10.4 mph - N/A   Mostly Cloudy
2:55 AM 69.8 °F - 59.0 °F 68% 29.59 in 10.0 mi South 10.4 mph - N/A   Mostly Cloudy
3:15 AM 69.8 °F - 57.2 °F 64% 29.59 in 10.0 mi SSW 15.0 mph - N/A   Scattered Clouds
3:35 AM 71.6 °F - 57.2 °F 60% 29.58 in 10.0 mi SSW 15.0 mph 21.9 mph N/A   Clear
3:55 AM 71.6 °F - 55.4 °F 57% 29.59 in 10.0 mi SSW 19.6 mph 27.6 mph N/A   Clear
4:15 AM 71.6 °F - 55.4 °F 57% 29.58 in 10.0 mi SSW 20.7 mph 27.6 mph N/A   Clear
4:35 AM 71.6 °F - 53.6 °F 53% 29.59 in 10.0 mi SSW 24.2 mph 31.1 mph N/A   Clear
4:55 AM 71.6 °F - 53.6 °F 53% 29.59 in 10.0 mi SSW 20.7 mph 28.8 mph N/A   Clear
5:15 AM 71.6 °F - 53.6 °F 53% 29.60 in 10.0 mi SSW 23.0 mph 29.9 mph N/A   Clear
5:35 AM 69.8 °F - 53.6 °F 56% 29.60 in 10.0 mi SSW 20.7 mph 29.9 mph N/A   Clear
5:55 AM 69.8 °F - 53.6 °F 56% 29.61 in 10.0 mi SSW 19.6 mph 28.8 mph N/A   Clear
6:15 AM 69.8 °F - 51.8 °F 53% 29.61 in 10.0 mi SSW 20.7 mph 29.9 mph N/A   Clear
6:35 AM 69.8 °F - 50.0 °F 49% 29.62 in 10.0 mi SSW 23.0 mph 32.2 mph N/A   Clear
6:55 AM 69.8 °F - 50.0 °F 49% 29.63 in 10.0 mi SSW 20.7 mph 28.8 mph N/A   Clear
7:15 AM 69.8 °F - 50.0 °F 49% 29.64 in 10.0 mi SSW 17.3 mph 28.8 mph N/A   Clear
7:35 AM 71.6 °F - 50.0 °F 46% 29.65 in 10.0 mi SSW 17.3 mph 25.3 mph N/A   Clear
7:55 AM 71.6 °F - 51.8 °F 50% 29.66 in 10.0 mi SSW 19.6 mph 26.5 mph N/A   Clear
8:15 AM 71.6 °F - 50.0 °F 46% 29.66 in 10.0 mi SSW 25.3 mph 34.5 mph N/A   Clear
8:35 AM 73.4 °F - 50.0 °F 44% 29.69 in 10.0 mi SW 18.4 mph 24.2 mph N/A   Clear
8:55 AM 75.2 °F - 50.0 °F 41% 29.69 in 10.0 mi SW 21.9 mph 28.8 mph N/A   Clear
9:15 AM 75.2 °F - 48.2 °F 38% 29.69 in 10.0 mi SW 20.7 mph 28.8 mph N/A   Clear
9:35 AM 77.0 °F - 48.2 °F 36% 29.69 in 10.0 mi SW 21.9 mph 32.2 mph N/A   Clear
9:55 AM 75.2 °F - 48.2 °F 38% 29.69 in 10.0 mi SSW 23.0 mph 32.2 mph N/A   Clear
10:15 AM 78.8 °F - 48.2 °F 34% 29.69 in 10.0 mi SW 24.2 mph 32.2 mph N/A   Clear
10:35 AM 80.6 °F - 46.4 °F 30% 29.69 in 10.0 mi SSW 23.0 mph 35.7 mph N/A   Clear
10:55 AM 80.6 °F - 46.4 °F 30% 29.69 in 10.0 mi SW 27.6 mph 35.7 mph N/A   Clear
11:15 AM 80.6 °F - 46.4 °F 30% 29.68 in 10.0 mi SW 28.8 mph 42.6 mph N/A   Clear
11:35 AM 82.4 °F - 48.2 °F 30% 29.68 in 10.0 mi SW 24.2 mph 34.5 mph N/A   Clear
11:55 AM 82.4 °F - 50.0 °F 32% 29.68 in 10.0 mi SW 24.2 mph 34.5 mph N/A   Clear
12:15 PM 84.2 °F - 51.8 °F 33% 29.68 in 10.0 mi SW 29.9 mph 35.7 mph N/A   Clear
12:35 PM 84.2 °F - 51.8 °F 33% 29.68 in 10.0 mi SW 27.6 mph 38.0 mph N/A   Clear
12:55 PM 84.2 °F - 51.8 °F 33% 29.68 in 10.0 mi WSW 26.5 mph 35.7 mph N/A   Clear
1:15 PM 86.0 °F - 51.8 °F 31% 29.68 in 10.0 mi WSW 21.9 mph 35.7 mph N/A   Clear
1:35 PM 86.0 °F - 51.8 °F 31% 29.68 in 10.0 mi SW 24.2 mph 35.7 mph N/A   Clear
1:55 PM 86.0 °F - 51.8 °F 31% 29.68 in 10.0 mi SW 21.9 mph 31.1 mph N/A   Clear
2:15 PM 86.0 °F - 51.8 °F 31% 29.68 in 9.0 mi SW 18.4 mph 32.2 mph N/A   Clear
2:35 PM 87.8 °F 85.7 °F 53.6 °F 31% 29.68 in 10.0 mi SW 18.4 mph 28.8 mph N/A   Clear
2:55 PM 86.0 °F 84.2 °F 53.6 °F 33% 29.69 in 10.0 mi SW 15.0 mph 23.0 mph N/A   Scattered Clouds
3:15 PM 86.0 °F 84.2 °F 53.6 °F 33% 29.69 in 10.0 mi SSW 15.0 mph 25.3 mph N/A   Mostly Cloudy
3:35 PM 86.0 °F 84.2 °F 53.6 °F 33% 29.68 in 10.0 mi SW 15.0 mph 26.5 mph N/A   Mostly Cloudy
3:55 PM 86.0 °F - 51.8 °F 31% 29.69 in 10.0 mi SW 18.4 mph 26.5 mph N/A   Scattered Clouds
4:15 PM 86.0 °F - 51.8 °F 31% 29.69 in 10.0 mi SW 16.1 mph 24.2 mph N/A   Partly Cloudy
4:35 PM 86.0 °F - 51.8 °F 31% 29.69 in 9.0 mi SSW 21.9 mph - N/A   Clear
4:55 PM 86.0 °F - 50.0 °F 29% 29.69 in 10.0 mi SW 21.9 mph 27.6 mph N/A   Clear
5:15 PM 86.0 °F - 50.0 °F 29% 29.69 in 10.0 mi SSW 20.7 mph - N/A   Clear
5:35 PM 82.4 °F 81.4 °F 53.6 °F 37% 29.71 in 9.0 mi WNW 10.4 mph 23.0 mph N/A   Scattered Clouds
5:55 PM 82.4 °F - 51.8 °F 35% 29.71 in 9.0 mi SW 12.7 mph 23.0 mph N/A   Mostly Cloudy
6:15 PM 82.4 °F - 51.8 °F 35% 29.72 in 9.0 mi South 11.5 mph 18.4 mph N/A   Mostly Cloudy
6:35 PM 82.4 °F - 51.8 °F 35% 29.72 in 10.0 mi South 20.7 mph - N/A   Mostly Cloudy
6:55 PM 80.6 °F - 50.0 °F 34% 29.73 in 10.0 mi South 20.7 mph 27.6 mph N/A   Partly Cloudy
7:15 PM 80.6 °F - 50.0 °F 34% 29.74 in 8.0 mi South 21.9 mph - N/A   Partly Cloudy
7:35 PM 78.8 °F - 50.0 °F 36% 29.75 in 8.0 mi South 15.0 mph - N/A   Clear
7:55 PM 77.0 °F - 50.0 °F 39% 29.76 in 10.0 mi South 12.7 mph - N/A   Clear
8:15 PM 75.2 °F - 50.0 °F 41% 29.76 in 10.0 mi South 12.7 mph - N/A   Clear
8:35 PM 75.2 °F - 50.0 °F 41% 29.76 in 10.0 mi South 12.7 mph - N/A   Clear
8:55 PM 73.4 °F - 50.0 °F 44% 29.76 in 10.0 mi South 12.7 mph - N/A   Clear
9:15 PM 73.4 °F - 50.0 °F 44% 29.78 in 10.0 mi SSW 10.4 mph - N/A   Clear
9:35 PM 71.6 °F - 50.0 °F 46% 29.81 in 10.0 mi SW 9.2 mph - N/A   Clear
9:55 PM 69.8 °F - 51.8 °F 53% 29.83 in 10.0 mi WNW 8.1 mph - N/A   Scattered Clouds
10:15 PM 69.8 °F - 51.8 °F 53% 29.84 in 10.0 mi North 10.4 mph - N/A   Overcast
10:35 PM 68.0 °F - 50.0 °F 52% 29.85 in 10.0 mi NNE 11.5 mph - N/A   Mostly Cloudy
10:55 PM 66.2 °F - 50.0 °F 56% 29.85 in 10.0 mi NNE 10.4 mph 17.3 mph N/A   Partly Cloudy
11:15 PM 66.2 °F - 48.2 °F 52% 29.86 in 10.0 mi NNE 13.8 mph - N/A   Clear
11:35 PM 62.6 °F - 46.4 °F 55% 29.86 in 10.0 mi NNE 16.1 mph 21.9 mph N/A   Clear